When you browse on this site, cookies collect data to enhance your experience and personalize the content and advertising you see.
Visit our Privacy Policy to learn more. By continuing to use the site, you agree to this use of cookies and data.
  • In United Kingdom
  • List of Countries
  • For 7 days
  • Water Temperature
  • Weather Map
  • Weather Widgets
  • user-avatar
    Login

    Hourly Weather Pomorie

    Today, 10 December, Tuesday

    Time Temperature Precipitation Wind Pressure Humidity
    00:00 +6°C° 0 mm 2 mps 759 mmHg 83%
    01:00 +6°C° 0 mm 2 mps 759 mmHg 83%
    02:00 +6°C° 0 mm 2 mps 759 mmHg 84%
    03:00 +7°C° 0 mm 1 mps 759 mmHg 83%
    04:00 +6°C° 0 mm 1 mps 759 mmHg 83%
    05:00 +6°C° 0 mm 1 mps 759 mmHg 83%
    06:00 +6°C° 0 mm 1 mps 759 mmHg 83%
    07:00 +6°C° 0 mm 1 mps 759 mmHg 83%
    08:00 +6°C° 0 mm 1 mps 759 mmHg 84%
    09:00 +8°C° 0 mm 1 mps 759 mmHg 78%
    10:00 +9°C° 0 mm 1 mps 759 mmHg 73%
    11:00 +11°C° 0 mm 1 mps 759 mmHg 67%
    12:00 +11°C° 0 mm 1 mps 759 mmHg 66%
    13:00 +12°C° 0 mm 1 mps 759 mmHg 65%
    14:00 +12°C° 0 mm 1 mps 759 mmHg 64%
    15:00 +11°C° 0 mm 1 mps 759 mmHg 69%
    16:00 +10°C° 0 mm 1 mps 759 mmHg 74%
    17:00 +9°C° 0 mm 1 mps 759 mmHg 79%
    18:00 +9°C° 0 mm 1 mps 759 mmHg 80%
    19:00 +9°C° 0 mm 1 mps 760 mmHg 81%
    20:00 +9°C° 0 mm 1 mps 760 mmHg 82%
    21:00 +9°C° 0 mm 1 mps 760 mmHg 82%
    22:00 +9°C° 0 mm 1 mps 760 mmHg 82%
    23:00 +9°C° 0 mm 1 mps 761 mmHg 83%

    Tomorrow, 11 December, Wednesday

    Time Temperature Precipitation Wind Pressure Humidity
    00:00 +8°C° 0 mm 1 mps 761 mmHg 84%
    01:00 +7°C° 0 mm 2 mps 761 mmHg 85%
    02:00 +7°C° 0 mm 2 mps 761 mmHg 86%
    03:00 +7°C° 0 mm 3 mps 761 mmHg 87%
    04:00 +7°C° 0 mm 3 mps 761 mmHg 88%
    05:00 +5°C° 0 mm 3 mps 761 mmHg 89%
    06:00 +7°C° 0 mm 3 mps 761 mmHg 89%
    07:00 +7°C° 0 mm 3 mps 761 mmHg 90%
    08:00 +6°C° 0 mm 4 mps 761 mmHg 91%
    09:00 +7°C° 0 mm 4 mps 761 mmHg 87%
    10:00 +8°C° 0 mm 4 mps 761 mmHg 83%
    11:00 +11°C° 0 mm 4 mps 761 mmHg 79%
    12:00 +10°C° 0 mm 5 mps 760 mmHg 78%
    13:00 +12°C° 0 mm 5 mps 760 mmHg 76%
    14:00 +11°C° 0 mm 6 mps 759 mmHg 75%
    15:00 +11°C° 0 mm 6 mps 759 mmHg 79%
    16:00 +10°C° 0 mm 5 mps 759 mmHg 84%
    17:00 +9°C° 0 mm 5 mps 759 mmHg 88%
    18:00 +9°C° 0.1 mm 5 mps 759 mmHg 88%
    19:00 +9°C° 0.1 mm 5 mps 759 mmHg 88%
    20:00 +9°C° 0.1 mm 6 mps 760 mmHg 87%
    21:00 +9°C° 0.1 mm 5 mps 759 mmHg 88%
    22:00 +9°C° 0.1 mm 5 mps 759 mmHg 88%
    23:00 +9°C° 0.1 mm 5 mps 759 mmHg 89%

    Day after tomorrow, 12 December, Thursday

    Time Temperature Precipitation Wind Pressure Humidity
    00:00 +9°C° 0 mm 5 mps 758 mmHg 89%
    01:00 +9°C° 0 mm 5 mps 758 mmHg 90%
    02:00 +10°C° 0 mm 4 mps 758 mmHg 90%
    03:00 +8°C° 0 mm 4 mps 757 mmHg 91%
    04:00 +8°C° 0 mm 4 mps 757 mmHg 91%
    05:00 +8°C° 0 mm 4 mps 756 mmHg 91%
    06:00 +8°C° 0 mm 4 mps 756 mmHg 91%
    07:00 +8°C° 0 mm 4 mps 756 mmHg 91%
    08:00 +8°C° 0 mm 4 mps 756 mmHg 91%
    09:00 +9°C° 0 mm 5 mps 756 mmHg 87%
    10:00 +10°C° 0 mm 5 mps 756 mmHg 83%
    11:00 +12°C° 0 mm 5 mps 756 mmHg 79%
    12:00 +12°C° 0 mm 5 mps 756 mmHg 78%
    13:00 +12°C° 0 mm 5 mps 755 mmHg 78%
    14:00 +12°C° 0 mm 5 mps 755 mmHg 78%
    15:00 +12°C° 0 mm 4 mps 755 mmHg 80%
    16:00 +12°C° 0 mm 4 mps 755 mmHg 81%
    17:00 +11°C° 0 mm 4 mps 755 mmHg 83%
    18:00 +11°C° 0 mm 4 mps 755 mmHg 84%
    19:00 +11°C° 0 mm 3 mps 755 mmHg 85%
    20:00 +11°C° 0 mm 3 mps 755 mmHg 86%
    21:00 +11°C° 0 mm 3 mps 755 mmHg 87%
    22:00 +11°C° 0 mm 3 mps 755 mmHg 88%
    23:00 +10°C° 0 mm 3 mps 755 mmHg 89%

    13 December, Friday

    Time Temperature Precipitation Wind Pressure Humidity
    00:00 +10°C° 0 mm 2 mps 755 mmHg 88%
    01:00 +10°C° 0 mm 2 mps 754 mmHg 87%
    02:00 +10°C° 0 mm 2 mps 754 mmHg 86%
    03:00 +10°C° 0 mm 2 mps 754 mmHg 86%
    04:00 +10°C° 0 mm 2 mps 754 mmHg 85%
    05:00 +10°C° 0 mm 2 mps 754 mmHg 85%
    06:00 +11°C° 0 mm 1 mps 754 mmHg 85%
    07:00 +11°C° 0 mm 1 mps 754 mmHg 84%
    08:00 +11°C° 0 mm 1 mps 754 mmHg 84%
    09:00 +12°C° 0 mm 1 mps 754 mmHg 80%
    10:00 +13°C° 0 mm 1 mps 753 mmHg 76%
    11:00 +13°C° 0 mm 1 mps 753 mmHg 73%
    12:00 +14°C° 0 mm 2 mps 753 mmHg 72%
    13:00 +14°C° 0 mm 2 mps 753 mmHg 70%
    14:00 +14°C° 0 mm 2 mps 752 mmHg 69%
    15:00 +13°C° 0 mm 3 mps 752 mmHg 74%
    16:00 +12°C° 0 mm 3 mps 752 mmHg 79%
    17:00 +11°C° 0 mm 3 mps 752 mmHg 84%
    18:00 +11°C° 0 mm 3 mps 752 mmHg 86%
    19:00 +11°C° 0 mm 4 mps 752 mmHg 88%
    20:00 +11°C° 0 mm 4 mps 752 mmHg 90%
    21:00 +11°C° 0.1 mm 4 mps 752 mmHg 89%
    22:00 +10°C° 0.1 mm 4 mps 752 mmHg 88%
    23:00 +10°C° 0.1 mm 4 mps 752 mmHg 87%

    14 December, Saturday

    Time Temperature Precipitation Wind Pressure Humidity
    00:00 +10°C° 0 mm 4 mps 751 mmHg 87%
    01:00 +10°C° 0 mm 4 mps 751 mmHg 86%
    02:00 +10°C° 0 mm 4 mps 751 mmHg 85%
    03:00 +10°C° 0 mm 4 mps 751 mmHg 86%
    04:00 +10°C° 0 mm 4 mps 751 mmHg 87%
    05:00 +10°C° 0 mm 4 mps 751 mmHg 87%
    06:00 +10°C° 0 mm 4 mps 751 mmHg 88%
    07:00 +10°C° 0 mm 4 mps 752 mmHg 88%
    08:00 +8°C° 0 mm 4 mps 752 mmHg 88%
    09:00 +11°C° 0 mm 4 mps 752 mmHg 81%
    10:00 +13°C° 0 mm 4 mps 753 mmHg 75%
    11:00 +14°C° 0 mm 4 mps 753 mmHg 68%
    12:00 +15°C° 0 mm 4 mps 753 mmHg 67%
    13:00 +15°C° 0 mm 4 mps 754 mmHg 66%
    14:00 +16°C° 0 mm 5 mps 754 mmHg 65%
    15:00 +15°C° 0 mm 4 mps 754 mmHg 69%
    16:00 +14°C° 0 mm 4 mps 755 mmHg 74%
    17:00 +13°C° 0 mm 3 mps 755 mmHg 78%
    18:00 +12°C° 0 mm 3 mps 756 mmHg 80%
    19:00 +12°C° 0 mm 3 mps 757 mmHg 82%
    20:00 +12°C° 0 mm 3 mps 757 mmHg 85%
    21:00 +12°C° 0 mm 2 mps 758 mmHg 84%
    22:00 +12°C° 0 mm 2 mps 758 mmHg 84%
    23:00 +12°C° 0 mm 2 mps 759 mmHg 84%

    15 December, Sunday

    Time Temperature Precipitation Wind Pressure Humidity
    00:00 +12°C° 0 mm 2 mps 760 mmHg 84%
    01:00 +12°C° 0 mm 2 mps 760 mmHg 84%
    02:00 +12°C° 0 mm 2 mps 760 mmHg 84%
    03:00 +12°C° 0 mm 1 mps 761 mmHg 83%
    04:00 +12°C° 0 mm 1 mps 761 mmHg 82%
    05:00 +12°C° 0 mm 1 mps 762 mmHg 81%
    06:00 +12°C° 0 mm 1 mps 762 mmHg 81%
    07:00 +10°C° 0 mm 2 mps 763 mmHg 80%
    08:00 +10°C° 0 mm 2 mps 764 mmHg 79%
    09:00 +12°C° 0 mm 2 mps 764 mmHg 75%
    10:00 +13°C° 0 mm 2 mps 764 mmHg 71%
    11:00 +14°C° 0 mm 2 mps 765 mmHg 67%
    12:00 +15°C° 0 mm 1 mps 765 mmHg 65%
    13:00 +15°C° 0 mm 1 mps 765 mmHg 62%
    14:00 +16°C° 0 mm 1 mps 765 mmHg 60%
    15:00 +15°C° 0 mm 1 mps 765 mmHg 65%
    16:00 +14°C° 0 mm 1 mps 766 mmHg 71%
    17:00 +13°C° 0 mm 1 mps 766 mmHg 76%
    18:00 +12°C° 0 mm 1 mps 766 mmHg 78%
    19:00 +12°C° 0 mm 1 mps 767 mmHg 79%
    20:00 +11°C° 0 mm 1 mps 767 mmHg 81%
    21:00 +11°C° 0 mm 1 mps 767 mmHg 82%
    22:00 +11°C° 0 mm 1 mps 768 mmHg 83%
    23:00 +11°C° 0 mm 1 mps 768 mmHg 84%
    Show more